Regional Weather Roundup
Issued by NWS Midland/Odessa, TX

Skip options and go directly to product.
Home | Oldest Version | Previous Version | Current Version | All | Graphics & Text | Save Text | Print | Product List | Glossary On

Skip product version selection by date and time.   
311
ASUS44 KMAF 101810
RWRMAF
MIDLAND AREA WEATHER ROUNDUP
NATIONAL WEATHER SERVICE MIDLAND TX
1200 PM CST SAT DEC 10 2016

...IN SOUTHWEST TEXAS AND SOUTHEAST NEW MEXICO...

CITY           SKY/WX    TMP DP  RH WIND       PRES   REMARKS
ALPINE         MOSUNNY   57  40  53 SW21      30.30F
ANDREWS        FAIR      51  38  60 S13       30.19F
ARTESIA        FOG       34  34 100 S6        30.17F VSB 1/4 WCI  29
BIG SPRING     SUNNY     45  37  74 S15       30.25F WCI  38
CARLSBAD       CLOUDY    37  37 100 E5        30.16F FOG     WCI  33
DRYDEN           N/A     38  36  92 CALM      30.30F
FORT STOCKTON  SUNNY     60  42  51 S7        30.21F
GUAD PASS      NOT AVBL
HOBBS          SUNNY     46  39  76 S9        30.17F
MARFA          SUNNY     52  40  63 S12       30.29F
MIDLAND AIRPK  SUNNY     47  38  70 S10       30.22F
MIDLAND INTL   SUNNY     48  37  65 S10       30.21F
ODESSA         SUNNY     50  37  61 S12       30.21F
PECOS          SUNNY     49  38  66 SE3       30.22F
PRESIDIO       FAIR      51  38  61 CALM      30.30F
SEMINOLE       SUNNY     51  38  61 SW13      30.19F
SNYDER         SUNNY     46  36  67 S16G22    30.21F WCI  39
WINK           SUNNY     49  38  65 S10       30.19F
$$
...OTHER STATIONS IN TEXAS...

CITY           SKY/WX    TMP DP  RH WIND       PRES   REMARKS
ABILENE        SUNNY     49  36  61 S17G26    30.26F
AMARILLO       SUNNY     58  35  42 SW21G28   30.04F
AUSTIN         CLOUDY    49  33  54 SE5       30.41F
BROWNSVILLE    PTSUNNY   62  50  64 NW9       30.33F
CORPUS CHRISTI CLOUDY    55  47  74 N12       30.36F
DALLAS FTW     CLOUDY    44  25  47 SE16      30.39F WCI  37
DEL RIO        CLOUDY    48  36  63 SE13      30.36F
EL PASO        MOSUNNY   46  32  58 CALM      30.26F
HOUSTON INT    CLOUDY    51  34  52 E8        30.46F
LUBBOCK        MOSUNNY   50  36  58 SW9       30.14F
SAN ANGELO     SUNNY     55  39  54 S21G26    30.29F
SAN ANTONIO    CLOUDY    46  36  68 VRB3      30.41F
WACO           CLOUDY    46  29  51 SE12      30.42F
WICHITA FALLS  NOT AVBL
$$
...OTHER LOCATIONS IN NEW MEXICO...

CITY           SKY/WX    TMP DP  RH WIND       PRES   REMARKS
ALAMAGORDO     NOT AVBL
ALBUQUERQUE    MOSUNNY   42  30  62 VRB3      30.23F
CANNON AFB     SUNNY     51  36  57 W13       30.10F
CLOVIS         SUNNY     54  34  47 SW16      30.09F
HOLLOMAN AFB   SUNNY     44  28  53 S5        30.29F
ROSWELL        FOG       33  32  96 CALM      30.15F VSB 1/4
RUIDOSO        SUNNY     55  23  28 N6        30.22F
SANTA FE       SUNNY     43  29  57 W13       30.20F WCI  36
TRUTH OR CONSE SUNNY     45  31  58 S8        30.24F
TUCUMCARI      SUNNY     65  29  25 SW17      30.01F
$$